Content
SEND FEEDBACK

Daily
Averages
Monthly
Summary
Mauritania

PORT-ETIENNE, MAURITANIA


Home > Africa > Mauritania
Elevation: 10 feet     Latitude: 20 54N     Longitude: 017 06W

WEATHER
 
SELECT A DAY
Number of Records: 117,654;   Date Range: 7/1/96 - 7/28/14
 
SHARE

PRINT THIS DATA

[ ← Previous Day ]
WEATHER ALMANAC - JANUARY 17, 2013
[ Next Day → ]
[ °C ]   °F
Weather ElementAverageHighLow
Temperature66.9 °F78.8 °F (4:00 pm)60.8 °F (6:00 am)
Dewpoint35.2 °F56 °F (6:00 pm)12.2 °F (4:00 pm)
Humidity32.3 %68 % (7:00 pm)5 % (3:00 pm)
Barometer30.11 in30.19 in (9:00 am)30.06 in (3:00 pm)
Wind Speed10 mph15 mph (9:00 am)
Weather ElementAverage
Visibility2.3 mi
Wind DirectionESE (117 °)

Weather ElementTotal
Precipitation---
Cooling Degree Days4.8 (Base 65)
Growing Degree Days19.8 (Base 50)
Averaged from 30 records on January 17, 2013
WEATHER CONDITIONS BREAKOUT
WIND DIRECTION BREAKOUT
WEATHER BY HOUR - JANUARY 17, 2013
[ °C ]   °F
Local TimeTemperatureDewpointHumidityBarometerVisibilityWind DirectionWind SpeedGust SpeedPrecipitationEventsConditions
12:00 AM66.2 °F33.8 °F30 %30.09 in1.2 miNNE (30°)13.8 mph
1:00 AM64.4 °F33.8 °F32 %30.09 in1.2 miNNE (30°)12.7 mph
2:00 AM64.4 °F33.8 °F32 %30.09 in1.2 miNE (50°)12.7 mph
3:00 AM65.0 °F34.0 °F20 %30.11 in1.0 miENE (60°)12.7 mphWidespread Dust
3:00 AM64.4 °F33.8 °F32 %30.09 in1.2 miENE (60°)13.8 mph
4:00 AM62.6 °F33.8 °F34 %30.09 in1.2 miENE (60°)9.2 mph
5:00 AM62.6 °F32.0 °F32 %30.12 in1.2 miNE (50°)6.9 mph
6:00 AM60.8 °F30.2 °F31 %30.12 in1.9 miNE (50°)9.2 mphLow Drifting Sand
7:00 AM60.8 °F28.4 °F29 %30.12 in1.9 miNE (40°)11.5 mphLow Drifting Sand
8:00 AM60.8 °F28.4 °F29 %30.15 in1.9 miNE (50°)13.8 mphLow Drifting Sand
9:00 AM62.0 °F31.0 °F20 %30.19 in1.0 miNE (50°)13.8 mphWidespread Dust
9:00 AM62.6 °F26.6 °F26 %30.18 in2.5 miNE (50°)15.0 mphWidespread Dust
10:00 AM64.4 °F28.4 °F26 %30.18 in2.5 miNE (50°)13.8 mphWidespread Dust
11:00 AM66.2 °F32.0 °F28 %30.18 in3.7 miNE (50°)12.7 mph
12:00 PM69.8 °F35.6 °F28 %30.15 in3.7 miENE (60°)11.5 mphWidespread Dust
12:00 PM70.0 °F37.0 °F19 %30.16 in4.0 miENE (60°)11.5 mphWidespread Dust
1:00 PM71.6 °F32.0 °F23 %30.09 in3.7 miENE (70°)9.2 mphWidespread Dust
2:00 PM75.2 °F24.8 °F15 %30.09 in2.5 miENE (60°)6.9 mphWidespread Dust
3:00 PM76.0 °F20.0 °F5 %30.09 in2.0 miNNE (20°)2.3 mphWidespread Dust
3:00 PM77.0 °F17.6 °F11 %30.06 in2.5 miVariable3.5 mphWidespread Dust
4:00 PM78.8 °F12.2 °F8 %30.06 in2.5 miVariable3.5 mphWidespread Dust
5:00 PM71.6 °F44.6 °F38 %30.06 in2.5 miWNW (300°)8.1 mphWidespread Dust
6:00 PM68.0 °F53.6 °F60 %30.06 in2.5 miNW (310°)12.7 mphWidespread Dust
6:00 PM68.0 °F56.0 °F58 %30.09 in2.0 miWNW (300°)11.5 mphWidespread Dust
7:00 PM66.2 °F55.4 °F68 %30.09 in2.5 miNW (310°)12.7 mphWidespread Dust
8:00 PM66.2 °F51.8 °F60 %30.09 in2.5 miNW (320°)8.1 mphWidespread Dust
9:00 PM65.0 °F51.0 °F51 %30.14 in2.0 miNW (320°)5.8 mphWidespread Dust
9:00 PM66.2 °F48.2 °F52 %30.12 in3.7 miNNW (330°)4.6 mphWidespread Dust
10:00 PM66.2 °F33.8 °F30 %30.12 in3.7 miNorth (360°)8.1 mphWidespread Dust
11:00 PM64.4 °F41.0 °F42 %30.12 in3.7 miNorth (10°)8.1 mphWidespread Dust
Hourly data recorded from GQPP, located miles away from Port-Etienne, Mauritania







STORIES FROM OUR PARTNERS